Time,TemperatureF,DewpointF,PressureIn,WindDirection,WindDirectionDegrees,WindSpeedMPH,WindSpeedGustMPH,Humidity,HourlyPrecipIn,Conditions,Clouds,dailyrainin,SoftwareType,DateUTC
2013-07-21 00:09:00,74.0,70.0,30.02,ENE,78,0.0,1.0,88,0.00,,,0.00,weatherlink.com 1.10,2013-07-21 10:09:00,
2013-07-21 00:27:00,74.0,71.0,30.02,South,182,0.0,5.0,89,0.00,,,0.00,weatherlink.com 1.10,2013-07-21 10:27:00,
2013-07-21 00:44:00,74.2,70.0,30.01,ESE,111,0.0,3.0,87,0.00,,,0.00,weatherlink.com 1.10,2013-07-21 10:44:00,
2013-07-21 01:03:00,75.3,70.0,30.00,ESE,108,1.0,4.0,85,0.00,,,0.00,weatherlink.com 1.10,2013-07-21 11:03:00,
2013-07-21 01:21:00,75.5,71.0,30.00,ENE,65,0.0,3.0,85,0.00,,,0.00,weatherlink.com 1.10,2013-07-21 11:21:00,
2013-07-21 01:39:00,74.8,70.0,30.00,ESE,111,0.0,8.0,86,0.04,,,0.04,weatherlink.com 1.10,2013-07-21 11:39:00,
2013-07-21 01:57:00,74.6,70.0,30.00,ENE,67,0.0,6.0,87,0.06,,,0.06,weatherlink.com 1.10,2013-07-21 11:57:00,
2013-07-21 02:16:00,74.9,70.0,29.99,ENE,62,0.0,6.0,86,0.06,,,0.06,weatherlink.com 1.10,2013-07-21 12:16:00,
2013-07-21 02:34:00,74.9,70.0,29.98,ESE,105,0.0,3.0,86,0.04,,,0.06,weatherlink.com 1.10,2013-07-21 12:34:00,
2013-07-21 02:52:00,75.3,70.0,29.97,ENE,73,2.0,8.0,85,0.00,,,0.06,weatherlink.com 1.10,2013-07-21 12:52:00,
2013-07-21 03:11:00,75.4,70.0,29.97,East,93,1.0,7.0,84,0.00,,,0.06,weatherlink.com 1.10,2013-07-21 13:11:00,
2013-07-21 03:29:00,75.6,70.0,29.96,ENE,71,0.0,6.0,84,0.00,,,0.06,weatherlink.com 1.10,2013-07-21 13:29:00,
2013-07-21 03:47:00,75.5,70.0,29.96,ESE,120,0.0,5.0,83,0.00,,,0.06,weatherlink.com 1.10,2013-07-21 13:47:00,
2013-07-21 04:05:00,75.5,70.0,29.96,NE,51,0.0,3.0,83,0.00,,,0.06,weatherlink.com 1.10,2013-07-21 14:05:00,
2013-07-21 04:23:00,75.6,70.0,29.96,East,94,3.0,5.0,83,0.00,,,0.06,weatherlink.com 1.10,2013-07-21 14:23:00,
2013-07-21 04:42:00,75.4,70.0,29.96,East,91,0.0,3.0,82,0.00,,,0.06,weatherlink.com 1.10,2013-07-21 14:42:00,
2013-07-21 05:01:00,75.7,70.0,29.96,ESE,104,0.0,7.0,82,0.00,,,0.06,weatherlink.com 1.10,2013-07-21 15:01:00,
2013-07-21 05:19:00,75.6,70.0,29.96,ENE,65,5.0,8.0,82,0.00,,,0.06,weatherlink.com 1.10,2013-07-21 15:19:00,
2013-07-21 05:37:00,75.5,70.0,29.96,NE,52,0.0,4.0,83,0.00,,,0.06,weatherlink.com 1.10,2013-07-21 15:37:00,
2013-07-21 05:55:00,75.6,70.0,29.97,ENE,65,0.0,9.0,82,0.00,,,0.06,weatherlink.com 1.10,2013-07-21 15:55:00,
2013-07-21 06:13:00,75.8,70.0,29.97,ENE,63,4.0,6.0,82,0.00,,,0.06,weatherlink.com 1.10,2013-07-21 16:13:00,
2013-07-21 06:31:00,76.3,70.0,29.98,East,97,0.0,5.0,81,0.00,,,0.06,weatherlink.com 1.10,2013-07-21 16:31:00,
2013-07-21 06:49:00,76.7,70.0,29.98,East,84,0.0,5.0,80,0.00,,,0.06,weatherlink.com 1.10,2013-07-21 16:49:00,
2013-07-21 07:07:00,76.9,70.0,29.98,East,96,0.0,5.0,80,0.00,,,0.06,weatherlink.com 1.10,2013-07-21 17:07:00,
2013-07-21 07:25:00,77.3,70.0,29.99,SE,128,2.0,8.0,78,0.00,,,0.06,weatherlink.com 1.10,2013-07-21 17:25:00,
2013-07-21 07:43:00,79.3,71.0,29.99,South,171,2.0,8.0,75,0.00,,,0.06,weatherlink.com 1.10,2013-07-21 17:43:00,
2013-07-21 08:01:00,78.6,70.0,30.00,ESE,121,1.0,8.0,76,0.00,,,0.06,weatherlink.com 1.10,2013-07-21 18:01:00,
2013-07-21 08:19:00,79.1,70.0,30.00,SE,134,4.0,7.0,75,0.00,,,0.06,weatherlink.com 1.10,2013-07-21 18:19:00,
2013-07-21 08:37:00,79.8,71.0,30.00,SSE,159,2.0,7.0,75,0.00,,,0.06,weatherlink.com 1.10,2013-07-21 18:37:00,
2013-07-21 08:56:00,80.7,70.0,30.01,East,101,1.0,7.0,71,0.00,,,0.06,weatherlink.com 1.10,2013-07-21 18:56:00,
2013-07-21 09:14:00,80.9,71.0,30.01,East,83,1.0,10.0,72,0.00,,,0.06,weatherlink.com 1.10,2013-07-21 19:14:00,
2013-07-21 09:32:00,82.2,71.0,30.01,ENE,66,1.0,8.0,70,0.00,,,0.06,weatherlink.com 1.10,2013-07-21 19:32:00,
2013-07-21 09:50:00,82.0,72.0,30.01,SE,132,1.0,10.0,71,0.00,,,0.06,weatherlink.com 1.10,2013-07-21 19:50:00,
2013-07-21 10:08:00,81.9,71.0,30.01,East,99,1.0,9.0,70,0.00,,,0.06,weatherlink.com 1.10,2013-07-21 20:08:00,
2013-07-21 10:26:00,83.5,72.0,30.01,SSE,167,4.0,6.0,68,0.00,,,0.06,weatherlink.com 1.10,2013-07-21 20:26:00,
2013-07-21 10:44:00,84.1,72.0,30.01,East,95,2.0,9.0,66,0.00,,,0.06,weatherlink.com 1.10,2013-07-21 20:44:00,
2013-07-21 11:02:00,83.2,71.0,30.01,SE,144,2.0,8.0,66,0.00,,,0.06,weatherlink.com 1.10,2013-07-21 21:02:00,
2013-07-21 11:20:00,84.6,72.0,30.01,NE,54,3.0,7.0,65,0.00,,,0.06,weatherlink.com 1.10,2013-07-21 21:20:00,
2013-07-21 11:39:00,83.5,71.0,30.00,North,10,2.0,10.0,66,0.00,,,0.06,weatherlink.com 1.10,2013-07-21 21:39:00,
2013-07-21 11:57:00,82.9,71.0,30.00,NNE,21,3.0,10.0,67,0.00,,,0.06,weatherlink.com 1.10,2013-07-21 21:57:00,
2013-07-21 12:16:00,82.3,71.0,29.99,NNE,32,3.0,11.0,69,0.00,,,0.06,weatherlink.com 1.10,2013-07-21 22:16:00,
2013-07-21 12:34:00,82.2,71.0,29.99,NNE,31,5.0,11.0,70,0.00,,,0.06,weatherlink.com 1.10,2013-07-21 22:34:00,
2013-07-21 12:52:00,82.2,71.0,29.98,NE,34,4.0,13.0,69,0.00,,,0.06,weatherlink.com 1.10,2013-07-21 22:52:00,
2013-07-21 13:10:00,81.7,70.0,29.98,NE,38,5.0,11.0,68,0.00,,,0.06,weatherlink.com 1.10,2013-07-21 23:10:00,
2013-07-21 13:28:00,81.6,70.0,29.97,NE,51,2.0,9.0,69,0.00,,,0.06,weatherlink.com 1.10,2013-07-21 23:28:00,
2013-07-21 13:46:00,83.1,71.0,29.97,ENE,71,1.0,10.0,68,0.00,,,0.06,weatherlink.com 1.10,2013-07-21 23:46:00,
2013-07-21 14:04:00,83.1,71.0,29.97,North,5,10.0,12.0,68,0.00,,,0.06,weatherlink.com 1.10,2013-07-22 00:04:00,
2013-07-21 14:22:00,83.3,71.0,29.97,NE,47,2.0,12.0,67,0.00,,,0.06,weatherlink.com 1.10,2013-07-22 00:22:00,
2013-07-21 14:41:00,83.2,71.0,29.96,North,355,8.0,11.0,67,0.00,,,0.06,weatherlink.com 1.10,2013-07-22 00:41:00,
2013-07-21 14:59:00,83.7,71.0,29.96,NE,40,3.0,11.0,65,0.00,,,0.06,weatherlink.com 1.10,2013-07-22 00:59:00,
2013-07-21 15:17:00,83.1,71.0,29.96,NE,43,1.0,10.0,67,0.00,,,0.06,weatherlink.com 1.10,2013-07-22 01:17:00,
2013-07-21 15:35:00,82.8,72.0,29.96,NNE,24,4.0,10.0,69,0.00,,,0.06,weatherlink.com 1.10,2013-07-22 01:35:00,
2013-07-21 15:53:00,82.4,72.0,29.96,North,360,7.0,15.0,70,0.00,,,0.06,weatherlink.com 1.10,2013-07-22 01:53:00,
2013-07-21 16:11:00,82.2,71.0,29.96,ENE,57,4.0,9.0,68,0.00,,,0.06,weatherlink.com 1.10,2013-07-22 02:11:00,
2013-07-21 16:30:00,81.7,71.0,29.95,NE,35,7.0,10.0,69,0.00,,,0.06,weatherlink.com 1.10,2013-07-22 02:30:00,
2013-07-21 16:48:00,81.8,71.0,29.96,ENE,69,3.0,9.0,70,0.00,,,0.06,weatherlink.com 1.10,2013-07-22 02:48:00,
2013-07-21 17:06:00,80.9,70.0,29.96,East,80,3.0,7.0,70,0.00,,,0.06,weatherlink.com 1.10,2013-07-22 03:06:00,
2013-07-21 17:24:00,80.9,70.0,29.96,NE,37,0.0,7.0,70,0.00,,,0.06,weatherlink.com 1.10,2013-07-22 03:24:00,
2013-07-21 17:42:00,80.9,70.0,29.96,ENE,61,1.0,9.0,70,0.00,,,0.06,weatherlink.com 1.10,2013-07-22 03:42:00,
2013-07-21 18:01:00,80.1,70.0,29.96,North,350,0.0,7.0,71,0.00,,,0.06,weatherlink.com 1.10,2013-07-22 04:01:00,
2013-07-21 18:19:00,79.8,70.0,29.97,ENE,63,3.0,6.0,72,0.00,,,0.06,weatherlink.com 1.10,2013-07-22 04:19:00,
2013-07-21 18:37:00,78.7,69.0,29.97,ENE,57,0.0,5.0,72,0.00,,,0.06,weatherlink.com 1.10,2013-07-22 04:37:00,
2013-07-21 18:55:00,78.1,69.0,29.98,ENE,72,0.0,2.0,74,0.00,,,0.06,weatherlink.com 1.10,2013-07-22 04:55:00,
2013-07-21 19:13:00,77.7,69.0,29.98,North,11,2.0,7.0,75,0.00,,,0.06,weatherlink.com 1.10,2013-07-22 05:13:00,
2013-07-21 19:32:00,77.5,69.0,29.99,NNE,27,0.0,3.0,76,0.00,,,0.06,weatherlink.com 1.10,2013-07-22 05:32:00,
2013-07-21 19:50:00,77.3,70.0,29.99,North,10,0.0,5.0,77,0.00,,,0.06,weatherlink.com 1.10,2013-07-22 05:50:00,
2013-07-21 20:08:00,77.1,69.0,29.99,ENE,76,0.0,4.0,77,0.00,,,0.06,weatherlink.com 1.10,2013-07-22 06:08:00,
2013-07-21 20:26:00,77.1,69.0,30.00,NE,34,0.0,4.0,77,0.00,,,0.06,weatherlink.com 1.10,2013-07-22 06:26:00,
2013-07-21 20:44:00,77.1,69.0,30.00,North,5,0.0,5.0,77,0.00,,,0.06,weatherlink.com 1.10,2013-07-22 06:44:00,
2013-07-21 21:03:00,76.9,70.0,30.01,North,5,0.0,4.0,78,0.00,,,0.06,weatherlink.com 1.10,2013-07-22 07:03:00,
2013-07-21 21:21:00,76.9,70.0,30.01,NNE,15,0.0,5.0,78,0.00,,,0.06,weatherlink.com 1.10,2013-07-22 07:21:00,
2013-07-21 21:40:00,76.8,69.0,30.01,ENE,64,0.0,1.0,77,0.00,,,0.06,weatherlink.com 1.10,2013-07-22 07:40:00,
2013-07-21 21:58:00,76.5,69.0,30.02,North,5,0.0,1.0,77,0.00,,,0.06,weatherlink.com 1.10,2013-07-22 07:58:00,
2013-07-21 22:16:00,76.5,69.0,30.02,North,9,1.0,4.0,77,0.00,,,0.06,weatherlink.com 1.10,2013-07-22 08:16:00,
2013-07-21 22:34:00,76.9,70.0,30.02,North,355,0.0,7.0,78,0.00,,,0.06,weatherlink.com 1.10,2013-07-22 08:34:00,
2013-07-21 22:52:00,77.2,69.0,30.02,NNE,22,4.0,6.0,76,0.00,,,0.06,weatherlink.com 1.10,2013-07-22 08:52:00,
2013-07-21 23:10:00,77.2,69.0,30.01,NE,40,0.0,3.0,77,0.00,,,0.06,weatherlink.com 1.10,2013-07-22 09:10:00,
2013-07-21 23:29:00,77.1,70.0,30.01,NE,44,0.0,6.0,78,0.00,,,0.06,weatherlink.com 1.10,2013-07-22 09:29:00,
2013-07-21 23:47:00,77.0,70.0,30.01,North,5,0.0,4.0,78,0.00,,,0.06,weatherlink.com 1.10,2013-07-22 09:47:00,